KB4ID Weather Reports


time (UTC)temp
C
wind
direction
speed
KPH
gust
KPH
rain 1hr
cm
rain 24hr
cm
rain mn
cm
humidity
%
barometer
mb
20200922210410 18 63 0.0 0.0 0.00 0.00 0.00 70 1018.9
20200922205405 18 64 0.0 0.0 0.00 0.00 0.00 65 1018.9
20200922201406 19 67 0.0 0.0 0.00 0.00 0.00 63 1019.6
20200922192405 20 75 0.0 0.0 0.00 0.00 0.00 62 1020.3
20200922185405 20 76 0.0 1.6 0.00 0.00 0.00 59 1020.9
20200922182405 19 155 0.0 1.6 0.00 0.00 0.00 60 1021.3
20200922181417 19 331 0.0 0.0 0.00 0.00 0.00 56 1021.6
20200922180406 19 79 0.0 0.0 0.00 0.00 0.00 63 1022.0
20200922174405 19 18 0.0 0.0 0.00 0.00 0.00 61 1022.3
20200922173409 18 18 0.0 0.0 0.00 0.00 0.00 64 1022.6
20200922172405 18 103 0.0 0.0 0.00 0.00 0.00 59 1022.6
20200922171405 18 118 0.0 0.0 0.00 0.00 0.00 62 1023.0
20200922170407 18 49 0.0 0.0 0.00 0.00 0.00 66 1022.6
20200922165409 18 165 0.0 0.0 0.00 0.00 0.00 67 1023.3
20200922164404 18 165 0.0 0.0 0.00 0.00 0.00 68 1023.3
20200922162406 17 176 0.0 0.0 0.00 0.00 0.00 61 1024.0
20200922160404 17 215 0.0 0.0 0.00 0.00 0.00 64 1024.0
20200922154406 16 217 0.0 0.0 0.00 0.00 0.00 72 1024.3
20200922153405 15 175 0.0 0.0 0.00 0.00 0.00 71 1024.7
20200922152404 15 141 0.0 0.0 0.00 0.00 0.00 75 1024.7
20200922151405 14 135 0.0 0.0 0.00 0.00 0.00 82 1024.7
20200922150404 13 122 0.0 0.0 0.00 0.00 0.00 82 1025.0
20200922144405 12 195 0.0 0.0 0.00 0.00 0.00 91 1025.0
20200922143405 12 196 0.0 0.0 0.00 0.00 0.00 98 1025.3
20200922142405 11 196 0.0 0.0 0.00 0.00 0.00 100 1025.0
20200922141405 11 196 0.0 0.0 0.00 0.00 0.00 100 1025.3
20200922135409 10 196 0.0 0.0 0.00 0.00 0.00 100 1025.7
20200922134407 9 196 0.0 0.0 0.00 0.00 0.00 100 1025.3
20200922133405 8 217 0.0 0.0 0.00 0.00 0.00 100 1025.3
20200922132406 8 219 0.0 0.0 0.00 0.00 0.00 100 1025.3
20200922131409 7 219 0.0 0.0 0.00 0.00 0.00 100 1025.3
20200922114412 4 219 0.0 0.0 0.00 0.00 0.00 99 1025.7
20200922113405 4 219 0.0 0.0 0.00 0.00 0.00 99 1025.3
20200922110408 4 219 0.0 0.0 0.00 0.00 0.00 99 1025.3
20200922104406 5 219 0.0 0.0 0.00 0.00 0.00 98 1025.3
20200922103406 5 219 0.0 0.0 0.00 0.00 0.00 98 1025.3
20200922101406 5 219 0.0 0.0 0.00 0.00 0.00 99 1025.7
20200922100406 5 219 0.0 0.0 0.00 0.00 0.00 98 1025.7
20200922095405 5 219 0.0 0.0 0.00 0.00 0.00 98 1025.7
20200922094406 5 219 0.0 0.0 0.00 0.00 0.00 98 1025.7
20200922093409 5 219 0.0 0.0 0.00 0.00 0.00 98 1025.3
20200922090406 5 219 0.0 0.0 0.00 0.00 0.00 99 1025.3
20200922084406 5 219 0.0 0.0 0.00 0.00 0.00 99 1025.3
20200922082407 5 219 0.0 0.0 0.00 0.00 0.00 99 1025.3
20200922080406 5 219 0.0 0.0 0.00 0.00 0.00 98 1025.7
20200922075405 6 219 0.0 0.0 0.00 0.00 0.00 98 1025.7
20200922074407 6 219 0.0 0.0 0.00 0.00 0.00 98 1025.7
20200922071407 6 219 0.0 0.0 0.00 0.00 0.00 98 1026.0
20200922070405 6 219 0.0 0.0 0.00 0.00 0.00 98 1026.0
20200922064408 6 219 0.0 0.0 0.00 0.00 0.00 98 1026.4
20200922063406 6 219 0.0 0.0 0.00 0.00 0.00 98 1026.4
20200922061404 6 219 0.0 0.0 0.00 0.00 0.00 98 1026.4
20200922055407 6 219 0.0 0.0 0.00 0.00 0.00 98 1026.7
20200922053408 7 219 0.0 0.0 0.00 0.00 0.00 98 1027.0
20200922052408 7 219 0.0 0.0 0.00 0.00 0.00 98 1027.0
20200922050401 7 219 0.0 0.0 0.00 0.00 0.00 98 1027.4
20200922045409 7 219 0.0 0.0 0.00 0.00 0.00 98 1027.4
20200922044406 7 219 0.0 0.0 0.00 0.00 0.00 98 1027.4
20200922035408 7 219 0.0 0.0 0.00 0.00 0.00 97 1028.1
20200922034406 7 219 0.0 0.0 0.00 0.00 0.00 97 1028.1
20200922033407 8 219 0.0 0.0 0.00 0.00 0.00 97 1028.1
20200922030406 8 219 0.0 0.0 0.00 0.00 0.00 96 1028.1
20200922025405 8 219 0.0 0.0 0.00 0.00 0.00 96 1028.1
20200922023408 8 219 0.0 0.0 0.00 0.00 0.00 96 1027.7
20200922015407 9 219 0.0 0.0 0.00 0.00 0.00 95 1028.1
20200922012405 10 219 0.0 0.0 0.00 0.00 0.00 95 1028.1
20200922011406 10 219 0.0 0.0 0.00 0.00 0.00 94 1028.1
20200922010407 10 219 0.0 0.0 0.00 0.00 0.00 94 1028.1
20200922005406 10 219 0.0 0.0 0.00 0.00 0.00 93 1028.1
20200922004406 10 219 0.0 0.0 0.00 0.00 0.00 93 1028.1
20200922003406 11 219 0.0 0.0 0.00 0.00 0.00 92 1028.1
20200922002407 11 219 0.0 0.0 0.00 0.00 0.00 92 1028.1
20200922001408 11 219 0.0 0.0 0.00 0.00 0.00 91 1028.1
20200922000406 11 219 0.0 0.0 0.00 0.00 0.00 90 1028.1
20200921235406 12 219 0.0 0.0 0.00 0.00 0.00 88 1028.1
20200921233408 13 219 0.0 0.0 0.00 0.00 0.00 84 1028.1
20200921223409 15 219 0.0 0.0 0.00 0.00 0.00 75 1028.4
20200921222406 16 219 0.0 0.0 0.00 0.00 0.00 73 1028.1
20200921220408 16 220 0.0 0.0 0.00 0.00 0.00 72 1028.4
20200921215407 16 192 0.0 0.0 0.00 0.00 0.00 69 1028.4
20200921214410 16 207 0.0 0.0 0.00 0.00 0.00 70 1028.4
20200921213406 16 250 0.0 3.2 0.00 0.00 0.00 72 1028.4
20200921212406 16 215 0.0 0.0 0.00 0.00 0.00 67 1028.4
20200921211406 17 209 0.0 0.0 0.00 0.00 0.00 67 1028.4